Weather History for KCTY - January, 2013

Change the Weather History Date:

Friday, January 11, 2013

  Actual Average Record
Temperature  
Mean Temperature 70 °F 53 °F  
Max Temperature 83 °F 66 °F 83 °F (2013)
Min Temperature 56 °F 40 °F 27 °F (2004)
Degree Days  
Heating Degree Days 0 13  
Month to date heating degree days 70 143  
Since 1 July heating degree days 494 648  
Cooling Degree Days 5 0  
Month to date cooling degree days 25 0  
Year to date cooling degree days 25 0  
Growing Degree Days 20 (Base 50)    
Moisture  
Dew Point 59 °F    
Average Humidity 74    
Maximum Humidity 100    
Minimum Humidity 40    
Precipitation  
Precipitation 0.00 in 0.14 in 0.72 in (2014)
Month to date precipitation 0.42 1.38  
Year to date precipitation 0.42 1.38  
Sea Level Pressure  
Sea Level Pressure 30.20 in    
Wind  
Wind Speed 4 mph (South)    
Max Wind Speed 14 mph    
Max Gust Speed 20 mph    
T = Trace of Precipitation, MM = Missing Value Source: NWS Daily Summary

Daily Weather History Graph

Daily Weather History Graph

Search for Another Location

Airport or City:

Trip Planner

Search our weather history database for the weather conditions in past years. The results will help you decide how hot, cold, wet, or windy it might be!

Date:

Astronomy

Jan. 11, 2013 Rise Set
Actual Time 7:28 AM EST 5:52 PM EST
Civil Twilight 7:02 AM EST 6:18 PM EST
Nautical Twilight 6:33 AM EST 6:47 PM EST
Astronomical Twilight 6:04 AM EST 7:16 PM EST
Moon 7:03 AM EST (1/11) 6:04 PM EST (1/11)
Length of Visible Light 11h 15m
Length of Day
10h 24m
Waning Crescent, 0% of the Moon is Illuminated
Jan 11
Waning Crescent
Jan 11
New
Jan 18
First Quarter
Jan 26
Full
Feb 3
Last Quarter

Hourly Weather History & Observations

Time (EST) Temp. Heat Index Dew Point Humidity Pressure Visibility Wind Dir Wind Speed Gust Speed Precip Events Conditions
12:53 AM 69.1 °F - 63.0 °F 81% 30.25 in - SE 5.8 mph - N/A   Unknown
1:53 AM 70.0 °F - 63.0 °F 78% 30.25 in - SE 3.5 mph - N/A   Unknown
2:53 AM 66.0 °F - 62.1 °F 87% 30.24 in - Calm Calm - N/A   Unknown
3:53 AM 62.1 °F - 60.1 °F 93% 30.23 in - Calm Calm - N/A   Unknown
4:53 AM 60.1 °F - 57.9 °F 93% 30.21 in - Calm Calm - N/A   Unknown
5:53 AM 59.0 °F - 57.9 °F 96% 30.20 in - Calm Calm - N/A   Unknown
6:53 AM 59.0 °F - 57.9 °F 96% 30.21 in - Calm Calm - N/A   Unknown
7:53 AM 57.9 °F - 57.0 °F 97% 30.21 in - Calm Calm - N/A   Unknown
8:53 AM 64.0 °F - 63.0 °F 96% 30.21 in - SSE 5.8 mph - N/A   Unknown
9:53 AM 69.1 °F - 64.0 °F 84% 30.22 in - SSE 10.4 mph - N/A   Unknown
10:53 AM 75.9 °F - 63.0 °F 64% 30.25 in - SSE 8.1 mph - N/A   Unknown
11:53 AM 80.1 °F 80.7 °F 59.0 °F 48% 30.22 in - SSE 11.5 mph 18.4 mph N/A   Unknown
12:53 PM 81.0 °F 80.8 °F 55.9 °F 42% 30.20 in - SSW 11.5 mph - N/A   Unknown
1:53 PM 82.9 °F 82.1 °F 55.9 °F 39% 30.18 in - Variable 6.9 mph - N/A   Unknown
2:53 PM 82.9 °F 82.0 °F 55.0 °F 38% 30.17 in - SSW 8.1 mph - N/A   Unknown
3:53 PM 81.0 °F 80.7 °F 55.0 °F 41% 30.17 in - South 10.4 mph - N/A   Unknown
4:53 PM 79.0 °F - 59.0 °F 50% 30.16 in - SSW 8.1 mph - N/A   Unknown
5:53 PM 73.9 °F - 59.0 °F 59% 30.16 in - SSW 4.6 mph - N/A   Unknown
6:53 PM 66.9 °F - 59.0 °F 76% 30.16 in - Calm Calm - N/A   Unknown
7:53 PM 64.0 °F - 59.0 °F 84% 30.18 in - Calm Calm - N/A   Unknown
8:53 PM 62.1 °F - 57.9 °F 86% 30.18 in - Calm Calm - N/A   Unknown
9:53 PM 60.1 °F - 57.0 °F 90% 30.19 in - Calm Calm - N/A   Unknown
10:53 PM 60.1 °F - 57.0 °F 90% 30.20 in - Calm Calm - N/A   Unknown
11:53 PM 60.1 °F - 57.0 °F 90% 30.20 in - Calm Calm - N/A   Unknown